Hourly Weather Roundup
Issued by NWS Central Illinois

Home | Current Version | Previous Version | Text Only | Print | Product List | Glossary On
Versions: 1 2 3 4 5 6 7 8 9 10 11 12 13 14 15 16 17 18 19 20 21 22 23 24 25 26 27 28 29 30 31 32 33 34 35 36 37 38 39 40 41 42 43 44 45 46 47 48 49 50
000
NZUS43 KILX 182210
HWRILX

Area Weather Roundup
National Weather Service Lincoln IL
400 PM CST MON DEC 18 2017

NOTE:  "FAIR" indicates few or no clouds below 12,000 feet, with
       no sigificant weather and/or obstructions to visibility.


CITY           SKY/WX    TMP DP  RH WIND       PRES   REMARKS
Bloomington    PTCLDY    46  39  76 SW13      29.93F
Champaign      MOCLDY    49  38  65 SW14      29.97S
Danville       CLOUDY    46  39  76 SW13G18   29.94S
Decatur        PTCLDY    49  39  68 SW9       29.98S
Effingham      CLOUDY    48  42  81 S9        30.04S
Flora          CLOUDY    48  42  79 SW12      30.06R
Galesburg      CLEAR     49  38  66 SW12      29.90S
Jacksonville   CLEAR     48  39  70 SW14G21   29.97S
Lacon          CLEAR     48  37  63 SW9       29.88F
Lawrenceville  CLOUDY    48  44  86 W10       30.05S
Litchfield     CLEAR     49  38  66 SW9       30.00F
$$


CITY           SKY/WX    TMP DP  RH WIND       PRES   REMARKS
Lincoln        PTCLDY    49  42  75 SW9       29.95S
Macomb         CLEAR     51  37  60 SW16      29.93S
Mattoon        CLOUDY    47  40  76 SW9       30.00S
Mt Carmel AP   CLOUDY    47  45  93 SW10      30.05S
Olney-Noble AP CLOUDY    47  41  81 SW5       30.05S
Paris AP       CLOUDY    46  42  84 SW14      30.01S
Peoria         CLEAR     49  38  65 SW14      29.91F
Pontiac        CLEAR     48  40  73 SW12G17   29.92S
Rantoul        PTCLDY    48  40  71 SW14      29.95F
Robinson       CLOUDY    46  41  85 SW9       30.06R
Springfield    PTCLDY    50  40  68 SW13G22   29.98S
Taylorville    MOCLDY    49  38  64 SW12      30.00R
$$

...REGIONAL REPORTS...


CITY           SKY/WX    TMP DP  RH WIND       PRES   REMARKS
Chicago O`Hare PTCLDY    44  34  67 SW10      29.86S
Kankakee       PTCLDY    46  38  74 SW13      29.92S
Moline         CLEAR     49  36  61 SW13      29.85S
Mount Sterling PTCLDY    48  38  67 SW13G21   29.94S
Mount Vernon   CLOUDY    47  43  86 SW7       30.07R
Pittsfield     PTCLDY    49  39  68 SW10      29.98S
Quincy         CLEAR     49  38  65 SW15G22   29.95S
Rockford       CLEAR     42  31  64 SW8       29.86F
$$


CITY           SKY/WX    TMP DP  RH WIND       PRES   REMARKS
Burlington     CLEAR     50  37  61 SW16      29.88F
Cedar Rapids   CLEAR     47  34  60 SW16      29.82S
Des Moines     PTCLDY    50  30  46 SW16      29.85S
Kirksville     CLEAR     50  38  63 SW13      29.94S
Ottumwa        CLEAR     50  33  52 SW14      29.87R
St Louis       PTCLDY    53  40  61 SW9       30.02S
$$


CITY           SKY/WX    TMP DP  RH WIND       PRES   REMARKS
Terre Haute    CLOUDY    46  41  82 SW10      30.01S
Evansville     LGT RAIN  48  45  89 SW7       30.08S
Indianapolis   NOT AVBL
Lafayette      CLOUDY    47  40  76 SW10      29.96R
Madison        MOCLDY    38  30  73 SW6       29.79F WCI  33
Milwaukee      PTCLDY    39  33  79 W10       29.82S WCI  32
$$






USA.gov is the U.S. government's official web portal to all federal, state and local government web resources and services.